Location: Passo di Treia
(43.2833°N, 13.3333°E)
Time: 01:32:20
(UTC+00:00)

Cosmos 2237 Rocket - Pass Details

Date: 09 December 2019
Orbit: 836 x 849 km, 71.0° (Epoch: 17 January)

Event Time Altitude Azimuth Distance (km) Brightness Sun altitude
Rises 17:46:02 0° 232° (SW) 3,402 6.3 -23.8°
Reaches altitude 10° 17:48:43 10° 241° (WSW) 2,470 5.6 -24.2°
Maximum altitude 17:53:48 33° 305° (NW) 1,399 3.7 -25.1°
Enters shadow 17:57:59 14° 3° (N) 2,191 4.2 -25.9°
